Retour au catalogue

STARLINK-36165

ActifCommunicationsVLEO
NORAD 66937·PAYLOAD·🇺🇸 United States

Lancé Dec 7, 2025 depuis Vandenberg Space Force Base

Loading…

Prochains Passages (prochaines 24 heures)

TLE

FraisSource: CelesTrak SupGP

Époque: Sep 15, 2026, 03:29 UTC

1 66937C 25286N   26258.14562500 -.00053231  00000+0 -15728-2 0  2588
2 66937  53.1579 194.7795 0001346  83.2162 328.5143 15.34416019    12

Suivez STARLINK-36165 en temps réel avec AllMySat

Download on the App Store